Location: Absher
(46.5583°N, 107.9840°W)
Time: 14:27:54
(UTC+00:00)

Tiangong - Visible Passes

Search period start: 04 December 2022 00:00
Search period end: 14 December 2022 00:00
Orbit: 386 x 394 km, 41.5° (Epoch: 04 December)

Date Brightness Start Highest point End Pass type
(mag) Time Alt. Az. Time Alt. Az. Time Alt. Az.
04 Dec -0.7 01:04:30 10° SW 01:07:18 29° S 01:08:08 25° SE visible
05 Dec -0.3 00:06:47 10° SW 00:09:26 24° SSE 00:12:05 10° ESE visible
05 Dec -0.3 01:43:03 10° WSW 01:45:11 28° SSW 01:45:11 28° SSW visible
06 Dec -0.7 00:45:07 10° WSW 00:48:00 32° S 00:49:55 17° ESE visible
06 Dec 1.3 02:21:54 10° WSW 02:22:14 12° WSW 02:22:14 12° WSW visible
07 Dec -0.6 01:23:46 10° WSW 01:26:35 28° S 01:26:58 28° S visible
08 Dec -0.6 00:25:41 10° WSW 00:28:33 31° S 00:31:27 10° ESE visible
08 Dec 0.7 02:02:46 10° WSW 02:04:03 16° SW 02:04:03 16° SW visible
09 Dec 0.0 01:04:24 10° WSW 01:07:00 23° SSW 01:08:53 14° SSE visible
10 Dec -0.2 00:06:08 10° WSW 00:08:55 28° S 00:11:42 10° SE visible
10 Dec 0.8 01:43:58 10° SW 01:45:15 12° SSW 01:46:09 11° S visible
11 Dec 0.7 00:45:05 10° WSW 00:47:13 17° SSW 00:49:21 10° SSE visible
13 Dec 1.1 00:26:13 10° SW 00:27:13 11° SSW 00:28:13 10° S visible
